Location: Augsburg
(48.3836°N, 10.8929°E)
Time: 15:37:43
(UTC+01:00)

ISS - Visible Passes

Search period start: 21 January 2018 00:00
Search period end: 31 January 2018 00:00
Orbit: 402 x 407 km, 51.6° (Epoch: 21 January)

Date Brightness Start Highest point End Pass type
(mag) Time Alt. Az. Time Alt. Az. Time Alt. Az.
25 Jan -0.8 19:46:01 10° SW 19:46:19 12° SW 19:46:19 12° SW visible
26 Jan -2.3 18:54:09 10° SSW 18:56:26 25° SSE 18:56:26 25° SSE visible
27 Jan -1.8 18:02:42 10° S 18:04:46 16° SE 18:06:28 12° ESE visible
27 Jan -1.8 19:37:33 10° WSW 19:39:08 26° WSW 19:39:08 26° WSW visible
28 Jan -3.5 18:45:20 10° SW 18:48:30 49° SSE 18:49:05 42° ESE visible
29 Jan -2.7 17:53:19 10° SSW 17:56:14 30° SE 17:58:58 11° E visible
29 Jan -2.6 19:29:18 10° W 19:31:38 41° W 19:31:38 41° W visible
30 Jan -3.9 18:36:52 10° WSW 18:40:09 88° SSE 18:41:27 34° ENE visible
30 Jan -0.5 20:13:39 10° WNW 20:14:06 13° WNW 20:14:06 13° WNW visible
